{"data":{"norad_id":67750,"epoch":"2026-09-20T14:56:45.427200Z","epoch_age_seconds":79070,"freshness":"FRESH","line1":"1 67750U 26027E   26263.62274800  .00004725  00000+0  21864-3 0  9991","line2":"2 67750  97.5188  31.5060 0007974 249.8296 110.2081 15.20599418 33460","mean_motion":15.20599418,"eccentricity":0.0007974,"inclination_deg":97.5188,"raan_deg":31.506,"arg_perigee_deg":249.8296,"mean_anomaly_deg":110.2081,"bstar":0.00021864,"rev_number":3346,"period_min":94.699496984813,"perigee_km":498.54355138375,"apogee_km":509.51923353604,"semimajor_km":6882.1683924599,"source":"CELESTRAK","updated_at":"2026-09-21T09:00:16.825125Z"}}